Temperature
17 17 17 16 16 16 16 16 16 15 14 14 14 14 14 14 14 14 14 14 14 14 14 13 13 13 13 13 13 13 13 12 12 12 12 12 12 12
17 16 16 16 16 16 16 15 15 15 15 14 14 14 14 14 14 14 14 13 13 13 13 13 13 13 13 13 12 12 12 12 12 12 12 12 12 11
16 16 16 16 16 16 15 15 15 15 15 14 14 14 13 13 13 13 13 13 13 13 13 13 13 12 12 12 12 12 12 12 12 11 11 11 11 11
16 16 16 16 16 15 15 15 15 15 14 14 14 13 13 13 13 13 13 13 12 12 12 12 12 12 12 12 12 11 11 11 11 11 11 11 11 10
16 16 16 16 15 15 15 15 15 15 14 14 14 13 13 13 13 12 12 12 12 12 12 12 12 12 11 11 11 11 11 11 11 10 10 10 10 10
16 15 15 15 15 15 15 15 15 14 14 14 13 13 13 12 12 12 12 12 12 12 12 11 11 11 11 11 11 11 11 10 10 10 10 10 10 9
15 15 15 15 15 14 14 14 14 14 14 13 13 13 12 12 12 12 12 12 12 11 11 11 11 11 11 11 11 11 10 10 10 10 9 9 9 9
15 15 15 14 14 14 14 14 14 13 13 13 13 12 12 12 12 12 11 11 11 11 11 11 11 11 11 10 10 10 10 10 10 9 9 9 9 9
15 14 14 14 14 14 13 13 13 13 13 13 13 12 12 12 12 12 11 11 11 11 11 11 11 11 10 10 10 10 10 10 9 9 9 9 9 8
14 14 14 14 14 13 13 13 13 13 13 13 12 12 12 12 12 12 11 11 11 11 11 11 11 10 10 10 10 10 10 9 9 9 9 9 8 8
14 14 14 14 13 13 13 13 13 13 13 12 12 12 12 12 11 11 11 11 11 11 11 10 10 10 10 10 10 10 9 9 9 9 9 8 8 8
14 14 13 13 13 13 13 13 13 13 12 12 12 12 12 11 11 11 11 11 11 10 10 10 10 10 10 10 10 10 9 9 9 9 9 8 8 8
14 13 13 13 13 13 12 12 12 12 12 12 12 11 11 11 11 11 11 11 11 11 10 10 10 10 10 10 10 9 9 9 9 9 9 8 8 8
14 13 13 13 13 12 12 12 12 12 12 11 11 11 11 11 11 11 11 10 10 10 10 10 10 10 10 9 9 9 9 9 9 9 9 8 8 8
13 13 13 12 12 12 12 12 12 12 11 11 11 11 11 11 11 11 10 10 10 10 10 10 10 10 9 9 9 9 9 9 9 9 8 8 8 8
12 12 12 12 12 12 12 12 11 11 11 11 11 11 11 11 11 10 10 10 10 10 10 10 10 9 9 9 9 9 9 9 9 9 8 8 8 8
12 12 12 12 12 12 12 11 11 11 11 11 11 11 11 10 10 10 10 10 10 10 10 10 10 9 9 9 9 9 9 9 9 9 8 8 8 8
12 12 12 12 12 11 11 11 11 11 11 11 11 11 10 10 10 10 10 10 10 9 9 9 9 9 9 9 9 9 9 9 9 8 8 8 8 8
12 12 11 11 11 11 11 11 11 11 11 11 10 10 10 10 10 10 10 9 9 9 9 9 9 9 9 8 9 9 9 9 8 8 8 8 8 8
11 11 11 11 11 11 11 11 11 11 10 10 10 10 10 10 9 9 9 9 9 9 9 9 9 9 9 9 9 9 9 9 8 8 8 8 8 8
11 11 11 11 11 11 11 10 10 10 10 10 10 10 9 9 9 9 9 9 9 9 9 9 9 9 9 8 8 8 9 8 8 8 8 8 8 8
11 11 11 11 10 10 10 10 10 10 10 9 9 9 9 9 9 9 9 9 9 8 8 8 8 8 8 8 8 8 8 8 8 8 8 8 8 8
11 11 10 10 10 10 10 10 10 10 9 9 9 9 9 9 9 9 8 8 8 8 8 8 8 8 8 8 8 8 8 8 8 8 8 8 7 7
Wind_Speed
1 1 1 1 2 2 3 4 4 2 1 2 1 1 3 4 3 5 5 5 5 5 5 5 6 6 6 7 7 6 6 6 5 5 5 5 4 4
0 1 0 1 1 1 2 2 2 3 2 1 1 2 3 4 4 4 4 5 5 5 5 6 6 7 7 7 7 7 6 6 5 5 5 5 4 5
1 1 1 1 1 1 2 2 2 3 3 1 0 1 2 2 3 3 4 4 4 4 5 6 7 7 7 7 7 7 6 5 5 5 5 5 6 6
1 1 0 1 1 1 2 3 2 3 4 3 1 1 1 3 3 2 2 3 3 4 5 6 6 7 7 7 7 6 6 6 6 6 6 6 6 6
1 1 1 1 1 1 2 3 2 3 3 4 3 1 1 2 1 1 2 1 2 3 4 5 6 6 7 7 7 6 6 6 6 6 5 5 6 5
1 1 1 2 2 2 2 2 3 3 4 4 3 2 1 1 2 1 1 1 1 2 3 4 5 5 6 6 6 6 6 6 6 6 6 5 5 5
1 1 1 2 2 3 3 3 4 3 4 4 3 2 2 2 2 2 2 1 1 1 1 2 3 3 4 5 6 7 7 7 7 6 6 5 4 4
2 1 1 1 1 2 5 5 6 6 5 4 3 3 3 3 2 3 2 2 2 2 2 2 3 2 5 7 8 9 9 8 8 7 7 6 5 4
2 1 1 0 1 1 3 3 3 5 7 6 5 4 4 5 4 4 4 3 3 3 3 2 2 3 6 7 9 11 11 10 9 9 8 8 7 6
2 3 2 1 1 2 3 2 1 1 3 4 5 5 5 5 6 5 5 3 1 1 4 3 2 3 4 7 9 11 12 12 11 10 10 10 9 7
1 2 3 2 2 4 4 3 1 1 1 3 5 6 7 8 7 3 2 2 1 2 2 3 2 2 2 3 8 10 12 13 12 12 11 11 10 9
1 1 2 3 3 5 4 3 2 2 1 0 0 1 2 4 7 6 6 4 2 2 3 3 2 2 1 2 3 7 9 11 13 13 13 12 11 9
2 2 2 4 4 4 4 3 4 3 2 1 1 1 1 2 3 5 5 5 4 3 4 4 3 2 2 2 2 4 7 7 8 10 12 13 13 11
4 3 3 5 4 4 3 3 3 2 1 1 1 1 2 3 3 4 5 6 6 5 6 6 4 4 3 2 2 2 3 6 7 7 9 10 11 13
3 5 5 5 3 2 3 4 3 2 2 2 3 3 4 4 2 2 2 2 2 3 4 6 4 4 4 4 3 2 2 3 5 6 6 7 7 7
2 2 4 4 2 2 2 2 2 3 4 4 4 3 2 1 2 2 2 1 1 2 3 5 7 5 4 4 3 3 3 3 4 5 5 5 7 10
3 1 1 0 1 1 2 2 2 2 3 3 3 2 2 2 2 2 2 2 2 3 3 2 3 4 5 4 3 4 4 4 4 5 5 5 6 8
4 2 3 3 4 4 4 3 3 4 4 3 3 4 4 4 3 2 2 3 3 4 4 3 1 1 1 3 6 5 4 4 4 4 5 5 5 6
3 3 4 5 4 4 4 4 5 4 4 4 4 4 4 4 3 3 3 3 4 4 4 3 3 4 4 4 5 7 6 4 3 3 4 5 6 6
3 4 4 4 4 4 4 4 4 3 3 4 4 4 4 4 4 4 4 4 5 4 4 3 4 6 7 7 5 4 7 6 5 5 4 3 3 4
5 5 5 4 4 4 4 4 4 4 3 3 4 4 5 4 4 4 4 6 5 4 5 6 7 8 4 2 1 3 4 8 8 6 5 3 3 2
5 5 5 5 5 5 4 4 4 4 4 4 4 4 4 5 5 5 5 4 5 5 6 5 3 2 3 4 5 5 5 4 5 8 9 9 5 6
6 5 5 5 5 4 4 5 5 5 5 5 5 5 5 5 5 5 5 5 5 5 4 3 2 2 4 5 5 4 5 4 2 2 3 7 11 13
Wind_Direction
208 194 192 203 178 175 166 164 162 179 215 193 179 153 133 123 128 129 125 134 137 134 133 133 131 123 118 113 110 107 105 100 93 88 90 97 100 102
186 148 187 205 182 169 170 168 162 165 181 194 195 183 152 129 126 123 127 129 131 135 138 140 137 131 125 122 117 116 114 111 109 104 97 95 94 92
96 129 164 166 163 167 156 154 152 143 154 182 114 141 126 131 125 120 124 123 124 131 142 143 140 136 132 129 126 124 120 117 116 111 106 101 100 100
122 106 225 137 141 165 160 163 166 157 152 164 159 154 156 163 158 153 144 143 139 143 148 149 150 149 144 139 134 130 122 117 114 111 111 111 110 108
140 132 157 128 143 159 153 157 161 146 138 154 167 167 140 157 141 160 149 140 157 163 162 166 164 161 159 153 148 144 140 136 129 123 119 116 111 106
157 143 134 149 171 164 144 142 137 130 133 147 153 157 160 164 142 152 170 229 204 180 170 178 182 179 178 172 169 168 165 158 150 143 137 130 124 117
146 134 138 147 170 172 159 153 144 143 145 150 161 161 168 165 189 192 192 195 249 207 171 205 196 200 205 199 193 190 184 178 171 167 163 157 150 145
151 148 112 74 127 171 161 153 155 159 165 168 183 189 202 198 185 179 170 155 238 226 173 225 199 224 231 224 218 210 204 201 198 195 192 191 190 185
153 155 148 56 78 125 146 145 164 171 169 172 183 202 202 199 181 186 192 192 215 206 163 220 213 228 237 232 226 221 218 217 214 210 206 204 205 204
157 163 155 162 138 136 133 119 138 213 201 189 196 210 208 198 189 192 198 197 220 200 161 195 218 224 232 230 230 224 223 223 223 219 215 214 214 216
154 157 160 165 179 149 131 128 103 327 279 196 200 201 199 192 179 153 150 152 209 231 185 178 202 219 241 241 236 228 225 225 225 225 224 224 224 224
177 183 180 172 167 156 151 152 173 240 249 116 191 203 194 199 190 181 178 177 186 228 207 171 178 154 232 266 236 230 229 232 232 233 232 232 227 224
193 217 232 189 174 173 171 183 207 205 194 186 210 266 272 240 224 208 194 182 185 220 204 166 170 165 178 233 256 227 219 223 226 233 236 234 227 217
198 213 222 205 200 196 199 211 198 154 135 137 179 247 241 245 240 223 214 211 208 209 196 172 171 178 171 190 246 247 229 225 218 225 231 234 232 227
203 201 208 212 217 231 227 215 185 161 164 194 227 240 238 235 224 213 211 217 237 239 207 196 178 175 175 192 207 213 229 240 219 218 224 224 222 217
216 228 221 222 230 249 246 229 205 196 196 217 230 244 253 227 212 202 203 202 207 282 264 222 196 179 193 205 194 213 210 217 221 220 218 227 230 224
168 133 120 198 242 256 256 256 238 214 214 222 224 227 225 221 229 213 194 181 195 231 262 278 233 209 203 191 205 226 224 231 225 206 204 226 239 234
155 176 209 220 226 233 235 242 237 226 225 217 216 217 217 217 225 222 201 197 214 227 232 231 184 79 1 280 220 213 222 229 230 209 196 209 239 240
175 206 215 222 227 231 232 230 233 231 217 210 217 219 217 217 213 217 216 219 227 232 232 218 191 181 207 249 266 224 207 221 213 214 210 205 222 232
210 216 222 225 225 228 232 234 236 232 221 222 222 220 216 214 218 219 216 217 224 228 236 231 214 207 213 224 234 250 226 207 206 217 222 221 237 251
222 224 224 225 228 227 226 223 224 224 227 225 226 219 213 212 222 223 223 227 222 222 228 236 238 229 216 174 228 268 259 237 219 209 204 202 220 224
225 226 229 232 232 228 222 218 220 227 232 229 230 227 219 213 218 223 223 224 226 228 236 246 246 205 188 211 234 246 259 275 263 240 220 206 191 205
228 229 231 234 233 229 222 220 221 227 226 227 230 228 224 222 222 220 222 224 228 236 241 246 242 222 221 221 229 239 246 250 252 270 275 266 240 238
Height
1543 1543 1542 1542 1543 1543 1544 1544 1545 1544 1545 1545 1545 1545 1545 1545 1545 1544 1544 1543 1542 1542 1541 1541 1540 1540 1540 1540 1540 1540 1540 1540 1540 1540 1540 1540 1540 1540
1541 1540 1540 1540 1541 1541 1542 1542 1542 1543 1542 1542 1543 1543 1544 1544 1543 1543 1543 1542 1541 1541 1540 1540 1539 1539 1539 1539 1539 1539 1539 1539 1539 1539 1539 1539 1539 1539
1539 1538 1538 1538 1538 1539 1539 1540 1540 1540 1540 1540 1541 1542 1542 1542 1542 1542 1542 1541 1540 1540 1539 1539 1539 1538 1538 1538 1538 1538 1538 1538 1538 1538 1538 1538 1538 1538
1537 1537 1536 1536 1536 1536 1537 1537 1537 1538 1538 1538 1539 1540 1540 1541 1541 1541 1541 1540 1540 1539 1539 1539 1538 1538 1538 1538 1537 1537 1537 1537 1537 1537 1537 1537 1537 1537
1536 1535 1535 1534 1534 1534 1534 1534 1535 1536 1536 1536 1537 1538 1538 1539 1539 1539 1539 1539 1539 1539 1538 1538 1538 1538 1537 1537 1537 1537 1537 1537 1537 1537 1537 1536 1536 1536
1534 1533 1533 1533 1533 1533 1533 1532 1533 1533 1533 1534 1535 1536 1536 1537 1537 1537 1537 1538 1537 1537 1537 1537 1537 1537 1537 1536 1536 1536 1536 1537 1536 1536 1536 1536 1536 1536
1532 1532 1532 1532 1531 1531 1531 1531 1531 1531 1531 1532 1532 1533 1534 1534 1534 1535 1535 1536 1536 1536 1536 1536 1535 1535 1535 1535 1536 1536 1536 1536 1536 1536 1535 1535 1535 1535
1531 1531 1531 1531 1530 1530 1530 1530 1530 1530 1530 1530 1530 1531 1531 1532 1533 1533 1534 1534 1533 1534 1534 1534 1534 1534 1534 1534 1535 1535 1535 1535 1535 1535 1535 1535 1534 1534
1529 1529 1529 1529 1529 1529 1529 1528 1528 1529 1529 1529 1529 1529 1529 1530 1531 1531 1531 1531 1531 1532 1532 1532 1532 1532 1533 1533 1533 1533 1533 1533 1533 1533 1533 1533 1533 1533
1528 1527 1527 1527 1527 1527 1527 1527 1527 1527 1527 1527 1527 1527 1528 1528 1529 1529 1529 1530 1530 1530 1530 1530 1530 1530 1531 1531 1531 1532 1532 1532 1532 1532 1532 1532 1532 1532
1526 1526 1525 1525 1525 1525 1526 1525 1525 1525 1525 1525 1525 1526 1526 1526 1527 1527 1527 1527 1527 1527 1528 1528 1528 1528 1529 1529 1529 1530 1530 1530 1530 1530 1530 1530 1530 1530
1524 1524 1523 1523 1523 1524 1524 1523 1523 1523 1523 1523 1523 1523 1523 1523 1523 1524 1524 1525 1525 1525 1525 1526 1526 1526 1526 1527 1527 1527 1527 1528 1528 1528 1528 1529 1529 1528
1521 1521 1521 1521 1521 1521 1522 1522 1522 1522 1521 1521 1521 1520 1520 1520 1520 1521 1521 1522 1522 1523 1523 1523 1523 1523 1524 1524 1524 1524 1525 1525 1526 1526 1526 1526 1526 1526
1519 1519 1519 1519 1519 1519 1519 1520 1520 1520 1520 1519 1519 1518 1518 1518 1518 1519 1519 1520 1520 1521 1521 1521 1521 1521 1521 1521 1521 1522 1522 1522 1523 1523 1523 1523 1523 1524
1516 1517 1517 1517 1517 1517 1517 1517 1518 1517 1517 1517 1517 1516 1516 1516 1516 1517 1517 1517 1518 1518 1518 1518 1518 1518 1518 1518 1518 1518 1519 1519 1519 1520 1520 1520 1520 1520
1514 1514 1515 1515 1515 1514 1514 1515 1515 1515 1515 1515 1514 1515 1514 1514 1514 1514 1514 1514 1515 1515 1515 1515 1515 1516 1515 1515 1515 1515 1516 1516 1516 1516 1516 1517 1517 1517
1511 1511 1511 1512 1511 1511 1511 1512 1512 1511 1511 1511 1512 1512 1512 1512 1512 1512 1512 1512 1512 1511 1512 1512 1512 1512 1513 1513 1512 1512 1512 1512 1513 1513 1513 1512 1513 1513
1507 1507 1507 1508 1508 1508 1508 1508 1508 1508 1508 1508 1508 1508 1508 1508 1508 1509 1509 1509 1508 1508 1508 1509 1509 1509 1509 1509 1509 1508 1508 1508 1509 1509 1509 1508 1508 1509
1503 1503 1503 1504 1504 1504 1504 1504 1504 1504 1504 1504 1504 1504 1504 1504 1505 1505 1505 1505 1505 1505 1505 1505 1505 1505 1504 1504 1504 1505 1504 1504 1504 1504 1504 1504 1504 1504
1499 1499 1499 1500 1500 1500 1500 1500 1500 1500 1500 1500 1500 1500 1500 1500 1500 1500 1500 1500 1501 1501 1501 1501 1501 1501 1500 1500 1500 1500 1500 1500 1500 1499 1499 1499 1499 1500
1495 1495 1495 1496 1496 1496 1496 1496 1496 1496 1495 1495 1495 1495 1495 1495 1495 1495 1496 1496 1496 1496 1496 1496 1496 1497 1497 1497 1496 1495 1496 1496 1495 1495 1494 1494 1494 1494
1491 1491 1491 1492 1492 1492 1492 1492 1491 1491 1491 1490 1490 1490 1490 1491 1491 1491 1491 1491 1491 1491 1491 1491 1492 1492 1492 1491 1490 1490 1490 1490 1491 1491 1490 1490 1489 1489
1487 1487 1487 1487 1487 1487 1487 1486 1486 1486 1486 1486 1486 1485 1485 1485 1485 1486 1486 1486 1486 1486 1486 1486 1486 1486 1486 1486 1486 1485 1485 1485 1485 1485 1486 1485 1486 1485